Regional Weather Roundup
Issued by NWS Sterling, VA

Home | Current Version | Previous Version | Text Only | Print | Product List | Glossary Off
Versions: 1 2 3 4 5 6 7 8 9 10 11 12 13 14 15 16 17 18 19 20 21 22 23 24 25 26 27 28 29 30 31 32 33 34 35 36 37 38 39 40 41 42 43 44 45 46 47 48 49 50

000
ASUS41 KLWX 291610
RWRLWX

REGIONAL WEATHER ROUNDUP
NATIONAL WEATHER SERVICE BALTIMORE MD/WASHINGTON DC
1200 PM EDT FRI AUG 29 2014

Note: "FAIR" indicates few or no clouds below 12,000 feet
with no significant weather and/or obstructions to visibility.
 TC=TEMPERATURE CELSIUS

 * =Non NWS site. Station does not report precipitation (e.g. rain,
    snow, etc.), thunder, or fog.

DCZ001-MDZ009-015-VAZ040>042-051-053>054-291700-
WASHINGTON METRO
  /KDAA//-FT BELVOIR

CITY           SKY/WX    TMP DP  RH WIND       PRES   REMARKS
WASHINGTON NAT PTSUNNY   77  51  40 VRB3      30.21F
DULLES         PTSUNNY   72  53  51 CALM      30.21F
ANDREWS AFB    SUNNY     73  55  52 NE6       30.21S
QUANTICO       MOSUNNY   74  55  51 CALM      30.22S
COLLEGE PARK*  SUNNY     73  52  46 CALM      30.20F
LEESBURG*      SUNNY     73  55  53 CALM      30.22F
GAITHERSBURG*  SUNNY     72  50  46 CALM      30.25F

$$

MDZ006>007-011-014-291700-
BALTIMORE METRO

CITY           SKY/WX    TMP DP  RH WIND       PRES   REMARKS
BWI AIRPORT    PTSUNNY   74  51  44 VRB7      30.20F
MD SCIENCE CTR   N/A     73  51  46 MISG      30.21S
MARTIN STATE   MOSUNNY   73  55  53 CALM      30.22F
ANNAPOLIS      SUNNY     73  51  46 N5        30.20F
FORT MEADE*    SUNNY     73  52  46 E6        30.23F

$$

MDZ012-015-019>023-291700-
MARYLAND EASTERN SHORE

CITY           SKY/WX    TMP DP  RH WIND       PRES   REMARKS
OCEAN CITY     SUNNY     78  58  49 N7        30.17F
SALISBURY      SUNNY     78  53  41 N7        30.18F
BAY BRIDGE AP*   N/A     72  52  49 NW8       30.20S
CAMBRIDGE*     SUNNY     73  52  46 CALM      30.19S
EASTON*        MOSUNNY   75  54  46 E3        30.23F

$$

MDZ017>025-291700-
SOUTHERN MARYLAND

CITY           SKY/WX    TMP DP  RH WIND       PRES   REMARKS
PATUXENT RIVER MOSUNNY   75  53  46 VRB5      30.19F
ST INIGOES     SUNNY     76  53  44 NE5       30.19S
LEONARDTOWN*   SUNNY     73  50  43 CALM      30.21S

$$

MDZ003>005-291700-
NORTH CENTRAL MARYLAND

CITY           SKY/WX    TMP DP  RH WIND       PRES   REMARKS
FREDERICK*     SUNNY     73  54  49 CALM      30.24F
HAGERSTOWN APT SUNNY     71  51  49 CALM      30.22F
WESTMINSTER*   SUNNY     72  50  46 CALM      30.22F

$$

MDZ501>502-291700-
WESTERN MARYLAND

CITY           SKY/WX    TMP DP  RH WIND       PRES   REMARKS
OAKLAND*       SUNNY     64  55  72 SE9       30.23F
CUMBERLAND*    SUNNY     75  50  41 S3        30.24F

$$

VAZ025>031-291700-
SHENANDOAH VALLEY

CITY           SKY/WX    TMP DP  RH WIND       PRES   REMARKS
WINCHESTER*    SUNNY     72  50  46 CALM      30.22S
STAUNTON*      MOSUNNY   73  55  53 E3        30.23F

$$

WVZ021-048>050-054>055-291700-
EASTERN WEST VIRGINIA PANHANDLE

CITY           SKY/WX    TMP DP  RH WIND       PRES   REMARKS
MARTINSBURG    SUNNY     72  47  40 VRB3      30.22F
PETERSBURG*    NOT AVBL

$$

VAZ036>039-050-291700-
CENTRAL FOOTHILLS

CITY           SKY/WX    TMP DP  RH WIND       PRES   REMARKS
CHARLOTTESVILL SUNNY     74  55  51 VRB3      30.21F
ORANGE*        SUNNY     73  54  49 N3        30.22F

$$

VAZ055>057-291700-
NORTH AND CENTRAL PIEDMONT

CITY           SKY/WX    TMP DP  RH WIND       PRES   REMARKS
FREDERICKSBRG* SUNNY     76  55  48 CALM      30.19F
STAFFORD*      SUNNY     74  57  54 E5        30.25S

$$

NCZ024-NYZ072-PAZ021-071-VAZ022-071-291700-
OTHER REGIONAL OBSERVATIONS

CITY           SKY/WX    TMP DP  RH WIND       PRES   REMARKS
NEW YORK CITY  PTSUNNY   73  49  42 MISG      30.22R
PHILADELPHIA   PTSUNNY   75  48  38 VRB3      30.20S
PITTSBURGH     PTSUNNY   70  53  54 SE6       30.18S
ROANOKE        CLOUDY    72  53  51 VRB3      30.23S
RICHMOND       MOSUNNY   80  58  46 CALM      30.18S
RALEIGH        PTSUNNY   81  68  64 NE7       30.14S

$$

ANZ530>537-291700-
MARINE OBSERVATIONS

STATION/POSITION TIME  TEMP    WIND        PRES
                       AIR SEA DIR/SP/G
                 (UTC) (F)     (DEG/KT/KT) (MB)
THOMAS PT LIGHT  1600   68 77  360/  5/  6 1023.8F
BALT KEY BRIDGE  1600   76      50/  3/  5 1022.9F
COVE POINT       1600   69     360/  5/  8 1022.5S
LEWISETTA        1600   72 77   50/  4/  6 1022.0S
SOLOMONS ISLAND  1600      80                N/A
PINEY POINT      1600          100/  4/  6   N/A

$$




USA.gov is the U.S. government's official web portal to all federal, state and local government web resources and services.